User: anonymous
Location: Mentone
(34.5413°N, 85.5351°W)
Time: 00:32:11
(UTC-05:00)
Language:

UOSAT-12 - Orbit

View from above orbital plane
View from above orbital plane
View from above satellite
View from above satellite

Ground track
Ground track

The orbit data is extracted from the following two-line orbital elements,

1 25693U 99021A   14107.93363345  .00001249  00000-0  16198-3 0  4523
2 25693 064.5556 087.7281 0044370 295.6935 064.0083 14.79900891809004
Epoch (UTC): 17 April 2014 22:24:25
Eccentricity: 0.0044370
inclination: 64.5556°
perigee height: 598 km
apogee height: 661 km
right ascension of ascending node: 87.7281°
argument of perigee: 295.6935°
revolutions per day: 14.79900891
mean anomaly at epoch: 64.0083°
orbit number at epoch: 80900

The dashed part of the orbit path shows where the satellite is in the earth's shadow,  

DLR